E22ZMG-4 Weather Reports


time (UTC)temp
C
wind
direction
speed
KPH
gust
KPH
rain 1hr
cm
rain 24hr
cm
rain mn
cm
humidity
%
barometer
mb
20260505000533 30 0 0.0 0.0 0.00 0.00 0.00 51 978.0
20260504235509 30 0 0.0 0.0 0.00 0.00 0.00 51 978.0
20260504234444 30 0 0.0 0.0 0.00 0.00 0.00 51 978.0
20260504233420 30 0 0.0 0.0 0.00 0.00 0.00 51 978.0
20260504232356 30 0 0.0 0.0 0.00 0.00 0.00 51 978.0
20260504231332 30 0 0.0 0.0 0.00 0.00 0.00 51 978.0
20260504230308 30 0 0.0 0.0 0.00 0.00 0.00 51 977.0
20260504225243 30 0 0.0 0.0 0.00 0.00 0.00 50 977.0
20260504224219 30 0 0.0 0.0 0.00 0.00 0.00 50 977.0
20260504223155 30 0 0.0 0.0 0.00 0.00 0.00 50 977.0
20260504222131 30 0 0.0 0.0 0.00 0.00 0.00 50 977.0
20260504221107 30 0 0.0 0.0 0.00 0.00 0.00 50 977.0
20260504220042 30 0 0.0 0.0 0.00 0.00 0.00 49 977.0
20260504215018 30 0 0.0 0.0 0.00 0.00 0.00 49 977.0
20260504213954 31 0 0.0 0.0 0.00 0.00 0.00 49 977.0
20260504212929 31 0 0.0 0.0 0.00 0.00 0.00 49 977.0
20260504211904 31 0 0.0 0.0 0.00 0.00 0.00 48 977.0
20260504210839 31 0 0.0 0.0 0.00 0.00 0.00 48 977.0
20260504205814 31 0 0.0 0.0 0.00 0.00 0.00 48 977.0
20260504204750 31 0 0.0 0.0 0.00 0.00 0.00 48 977.0
20260504203725 31 0 0.0 0.0 0.00 0.00 0.00 48 977.0
20260504202700 31 0 0.0 0.0 0.00 0.00 0.00 48 977.0
20260504201635 31 0 0.0 0.0 0.00 0.00 0.00 47 977.0
20260504200610 31 0 0.0 0.0 0.00 0.00 0.00 47 977.0
20260504195545 31 0 0.0 0.0 0.00 0.00 0.00 47 977.0
20260504194520 31 0 0.0 0.0 0.00 0.00 0.00 47 978.0
20260504193455 31 0 0.0 0.0 0.00 0.00 0.00 47 978.0
20260504192430 31 0 0.0 0.0 0.00 0.00 0.00 47 978.0
20260504191405 31 0 0.0 0.0 0.00 0.00 0.00 46 978.0
20260504190341 31 0 0.0 0.0 0.00 0.00 0.00 46 978.0
20260504185317 31 0 0.0 0.0 0.00 0.00 0.00 46 978.0
20260504184252 31 0 0.0 0.0 0.00 0.00 0.00 46 978.0
20260504183227 31 0 0.0 0.0 0.00 0.00 0.00 46 978.0
20260504182202 31 0 0.0 0.0 0.00 0.00 0.00 45 978.0
20260504181138 31 0 0.0 0.0 0.00 0.00 0.00 45 978.0
20260504180114 31 0 0.0 0.0 0.00 0.00 0.00 45 978.0
20260504175049 31 0 0.0 0.0 0.00 0.00 0.00 45 978.0
20260504174024 31 0 0.0 0.0 0.00 0.00 0.00 44 978.0
20260504172959 32 0 0.0 0.0 0.00 0.00 0.00 44 978.0
20260504171935 32 0 0.0 0.0 0.00 0.00 0.00 44 978.0
20260504170910 32 0 0.0 0.0 0.00 0.00 0.00 43 978.0
20260504150416 32 0 0.0 0.0 0.00 0.00 0.00 41 976.0
20260504141214 32 0 0.0 0.0 0.00 0.00 0.00 39 975.0
20260504140150 32 0 0.0 0.0 0.00 0.00 0.00 39 975.0
20260504110452 31 0 0.0 0.0 0.00 0.00 0.00 36 972.0
20260504100223 27 0 0.0 0.0 0.00 0.00 0.00 38 971.0
20260504081818 27 0 0.0 0.0 0.00 0.00 0.00 37 973.0
20260504080754 27 0 0.0 0.0 0.00 0.00 0.00 38 973.0
20260504045006 27 0 0.0 0.0 0.00 0.00 0.00 35 976.0
20260504043942 25 0 0.0 0.0 0.00 0.00 0.00 37 977.0
20260504042917 25 0 0.0 0.0 0.00 0.00 0.00 37 977.0
20260504041852 25 0 0.0 0.0 0.00 0.00 0.00 37 977.0
20260504040828 25 0 0.0 0.0 0.00 0.00 0.00 37 977.0
20260504035803 26 0 0.0 0.0 0.00 0.00 0.00 37 977.0
20260504034739 26 0 0.0 0.0 0.00 0.00 0.00 38 977.0
20260504033715 26 0 0.0 0.0 0.00 0.00 0.00 39 977.0
20260504032650 26 0 0.0 0.0 0.00 0.00 0.00 38 977.0
20260504031625 26 0 0.0 0.0 0.00 0.00 0.00 37 977.0
20260504030601 26 0 0.0 0.0 0.00 0.00 0.00 37 978.0
20260504025536 26 0 0.0 0.0 0.00 0.00 0.00 37 978.0
20260504024512 27 0 0.0 0.0 0.00 0.00 0.00 38 978.0
20260504023447 27 0 0.0 0.0 0.00 0.00 0.00 39 978.0
20260504022422 27 0 0.0 0.0 0.00 0.00 0.00 38 978.0
20260504021358 28 0 0.0 0.0 0.00 0.00 0.00 41 978.0
20260504020333 28 0 0.0 0.0 0.00 0.00 0.00 45 978.0
20260504015309 28 0 0.0 0.0 0.00 0.00 0.00 46 978.0
20260504014245 28 0 0.0 0.0 0.00 0.00 0.00 48 978.0
20260504013220 28 0 0.0 0.0 0.00 0.00 0.00 40 978.0
20260504012155 28 0 0.0 0.0 0.00 0.00 0.00 40 978.0
20260504011130 28 0 0.0 0.0 0.00 0.00 0.00 40 977.0
20260504010101 30 0 0.0 0.0 0.00 0.00 0.00 43 977.0
20260504005037 31 0 0.0 0.0 0.00 0.00 0.00 46 977.0
20260504004012 31 0 0.0 0.0 0.00 0.00 0.00 47 977.0
20260504002948 31 0 0.0 0.0 0.00 0.00 0.00 47 977.0
20260504001923 30 0 0.0 0.0 0.00 0.00 0.00 47 977.0
20260504000859 30 0 0.0 0.0 0.00 0.00 0.00 47 977.0